"2016-02-17 00:00:00",1380891,12.31,310.9,5.927,1.714,14.07,104.4224,10.59,11.69,22.74,0,110.5,13.01,11.38,272.9
"2016-02-17 00:00:30",1380892,13.04,317.1,8.21,1.357,16.11,104.4209,10.59,11.77,22.92,0,110.4,13,11.38,279.1
"2016-02-17 00:01:00",1380893,11.48,313.7,9.15,1.881,15.88,104.4176,10.58,11.74,22.83,0,110.4,13,11.37,275.7
"2016-02-17 00:01:30",1380894,12.09,314.2,8.42,1.618,15.48,104.4156,10.58,11.71,22.52,0,110.4,13,11.37,276.2
"2016-02-17 00:02:00",1380895,11.47,314.1,6.074,1.289,14.69,104.4145,10.57,11.68,22.55,0,110.5,13,11.36,276.1
"2016-02-17 00:02:30",1380896,12.19,318.8,7.417,1.208,14.3,104.4133,10.57,11.64,22.36,0,110.4,13.01,11.36,280.8
"2016-02-17 00:03:00",1380897,12.44,320.7,8.95,1.355,14.74,104.4097,10.56,11.67,22.25,0,110.4,13,11.35,282.7
"2016-02-17 00:03:30",1380898,13.25,320.8,8.87,1.626,15.85,104.406,10.55,11.74,22.07,0,110.4,13.01,11.34,282.8
"2016-02-17 00:04:00",1380899,12.64,318.8,7.86,1.331,15.54,104.4057,10.55,11.71,21.93,0,110.4,13.01,11.34,280.8
"2016-02-17 00:04:30",1380900,12.58,320.6,7.09,1.691,16.98,104.4046,10.55,11.76,22.05,0,110.4,13.01,11.34,282.6
"2016-02-17 00:05:00",1380901,10.19,320,6.346,1.627,14.61,104.3998,10.54,11.66,22.15,0,110.4,13.01,11.33,282.0
"2016-02-17 00:05:30",1380902,9.99,319.5,5.219,1.04,14.15,104.3984,10.53,11.58,22.09,0,110.4,13.01,11.32,281.5
"2016-02-17 00:06:00",1380903,10.5,322.7,6.897,1.342,15.49,104.3978,10.53,11.74,22.44,0,110.4,13.01,11.32,284.7
"2016-02-17 00:06:30",1380904,10.16,324.6,7.706,1.457,15.37,104.3978,10.53,11.62,22.52,0,110.4,13.01,11.32,286.6
"2016-02-17 00:07:00",1380905,10.33,325.3,7.338,1.579,15.74,104.3978,10.53,11.71,22.56,0,110.4,13.01,11.32,287.3
"2016-02-17 00:07:30",1380906,11.92,331.7,7.642,1.384,16.76,104.3978,10.53,11.75,22.03,0,110.4,13.02,11.32,293.7
"2016-02-17 00:08:00",1380907,12.05,324.5,7.599,1.408,15.92,104.3978,10.53,11.71,22.15,0,110.4,13.02,11.32,286.5
"2016-02-17 00:08:30",1380908,10.53,314.4,3.092,0.603,13.11,104.3976,10.53,11.53,22.35,0,110.4,13.02,11.32,276.4
"2016-02-17 00:09:00",1380909,11.92,318.3,7.951,1.584,16.04,104.3942,10.52,11.66,22.62,0,110.4,13.02,11.31,280.3
"2016-02-17 00:09:30",1380910,10.53,317.6,7.295,1.298,15.27,104.3846,10.5,11.73,22.91,0,110.4,13.02,11.29,279.6
"2016-02-17 00:10:00",1380911,11.24,322,6.255,1.628,16.11,104.3804,10.49,11.67,22.91,0,110.4,13.01,11.28,284.0
"2016-02-17 00:10:30",1380912,11.23,319.8,8.38,1.399,15.57,104.3685,10.46,11.66,22.89,0,110.4,13.02,11.25,281.8
"2016-02-17 00:11:00",1380913,11.82,322.4,7.696,1.415,15.97,104.364,10.45,11.63,22.52,0,110.4,13.02,11.23,284.4
"2016-02-17 00:11:30",1380914,11.8,316.3,5.36,1.346,14.47,104.3637,10.44,11.56,21.38,0,110.4,13.02,11.23,278.3
"2016-02-17 00:12:00",1380915,12.03,317.1,6.747,1.291,14.56,104.3598,10.43,11.56,21.41,0,110.4,13.02,11.22,279.1
"2016-02-17 00:12:30",1380916,12.44,322.2,7.189,1.421,16.49,104.3539,10.42,11.65,21.63,0,110.4,13.02,11.21,284.2
"2016-02-17 00:13:00",1380917,13.03,323.4,7.316,1.336,16.66,104.3471,10.4,11.65,21.82,0,110.4,13.02,11.19,285.4
"2016-02-17 00:13:30",1380918,11.07,318,6.487,1.538,15.75,104.34,10.38,11.6,22.37,0,110.4,13.02,11.17,280.0
"2016-02-17 00:14:00",1380919,10.85,320.2,7.968,1.544,14.74,104.3375,10.38,11.52,21.97,0,110.4,13.02,11.17,282.2
"2016-02-17 00:14:30",1380920,10.8,320.4,7.653,1.569,14.93,104.3316,10.36,11.53,22.16,0,110.4,13.02,11.15,282.4
"2016-02-17 00:15:00",1380921,11.75,318.9,7.714,1.377,15.21,104.3307,10.36,11.52,21.97,0,110.4,13.02,11.15,280.9
"2016-02-17 00:15:30",1380922,13.06,319.2,6.768,1.537,15.51,104.3319,10.36,11.59,21.71,0,110.4,13.02,11.15,281.2
"2016-02-17 00:16:00",1380923,11.84,320.1,8.49,1.343,16.27,104.3346,10.37,11.64,22.06,0,110.4,13.01,11.16,282.1
"2016-02-17 00:16:30",1380924,11.15,320.7,7.106,1.439,15.74,104.3361,10.37,11.57,22.29,0,110.4,13.01,11.16,282.7
"2016-02-17 00:17:00",1380925,10.93,319.7,5.618,1.13,14.53,104.3366,10.38,11.47,22.35,0,110.4,13.01,11.16,281.7
"2016-02-17 00:17:30",1380926,11.46,327,7.272,1.635,15.57,104.339,10.38,11.58,21.97,0,110.4,13.01,11.17,289.0
"2016-02-17 00:18:00",1380927,10.82,328.5,6.904,1.412,15.11,104.3396,10.38,11.49,21.74,0,110.4,13.01,11.17,290.5
"2016-02-17 00:18:30",1380928,10.9,323.2,5.812,1.256,14.93,104.3393,10.38,11.49,21.75,0,110.4,13.01,11.17,285.2
"2016-02-17 00:19:00",1380929,11.99,329.7,8.58,1.348,16.77,104.3405,10.38,11.66,21.85,0,110.4,13.01,11.17,291.7
"2016-02-17 00:19:30",1380930,11.75,331.4,7.927,1.413,16.57,104.3419,10.39,11.54,21.97,0,110.4,13.01,11.18,293.4
"2016-02-17 00:20:00",1380931,10.37,325.4,4.735,1.003,13.91,104.3422,10.39,11.52,22.05,0,110.4,13.02,11.18,287.4
"2016-02-17 00:20:30",1380932,11.65,327.9,7.068,1.608,15.73,104.3461,10.4,11.5,22.51,0,110.4,13.02,11.19,289.9
"2016-02-17 00:21:00",1380933,9.98,321.6,6.86,1.133,14.66,104.3467,10.4,11.47,22.35,0,110.4,13.02,11.19,283.6
"2016-02-17 00:21:30",1380934,10.61,324.7,7.715,1.426,15.89,104.3465,10.4,11.58,22.45,0,110.4,13.02,11.19,286.7
"2016-02-17 00:22:00",1380935,10.1,325,8,1.442,16,104.3414,10.39,11.53,22.41,0,110.4,13.02,11.18,287.0
"2016-02-17 00:22:30",1380936,9.67,324.5,7.298,1.244,14.54,104.3372,10.38,11.47,22.69,0,110.4,13.02,11.16,286.5
"2016-02-17 00:23:00",1380937,9.7,320,6.941,1.382,14.09,104.329,10.36,11.45,22.98,0,110.4,13.03,11.14,282.0
"2016-02-17 00:23:30",1380938,9,329.6,8.85,1.424,14.93,104.3268,10.35,11.55,23.49,0,110.4,13.03,11.14,291.6
"2016-02-17 00:24:00",1380939,5.561,330.4,5.614,1.308,13.01,104.3181,10.33,11.48,23.95,0,110.3,13.03,11.12,292.4
"2016-02-17 00:24:30",1380940,7.154,335.7,8.61,1.681,14.92,104.3182,10.33,11.45,24.36,0,110.3,13.03,11.12,297.7
"2016-02-17 00:25:00",1380941,6.381,347.6,12.91,1.473,14.29,104.3035,10.29,11.44,24.82,0,110.3,13.03,11.08,309.6
"2016-02-17 00:25:30",1380942,7.274,338.4,8.61,1.801,14.67,104.2878,10.25,11.49,25.07,0,110.3,13.03,11.04,300.4
"2016-02-17 00:26:00",1380943,7.32,323.3,8.35,1.216,13.39,104.2893,10.25,11.32,24.63,0,110.3,13.03,11.04,285.3
"2016-02-17 00:26:30",1380944,7.692,318.5,4.413,1.61,13.52,104.2773,10.22,11.28,22.97,0,110.3,13.03,11.01,280.5
"2016-02-17 00:27:00",1380945,6.513,332.9,10.4,1.665,14.79,104.2598,10.18,11.46,24.02,0,110.3,13.04,10.97,294.9
"2016-02-17 00:27:30",1380946,9.62,334.9,12.85,1.433,15.08,104.2599,10.18,11.38,24.81,0,110.3,13.04,10.97,296.9
"2016-02-17 00:28:00",1380947,7.977,333.5,16.37,1.365,14.56,104.2492,10.15,11.35,25.43,0,110.3,13.04,10.94,295.5
"2016-02-17 00:28:30",1380948,6.343,343.6,19.39,1.527,14.67,104.2286,10.1,11.37,25.94,0,110.3,13.04,10.89,305.6
"2016-02-17 00:29:00",1380949,8.82,314.7,6.054,1.173,13.92,104.2276,10.1,11.23,24.4,0,110.3,13.04,10.88,276.7
"2016-02-17 00:29:30",1380950,7.137,319.6,7.057,1.076,12.68,104.2138,10.06,11.17,24.12,0,110.3,13.04,10.85,281.6
"2016-02-17 00:30:00",1380951,7.336,334.1,6.898,1.734,14.95,104.1965,10.02,11.23,25.02,0,110.3,13.04,10.80,296.1
"2016-02-17 00:30:30",1380952,7.919,325,6.695,1.724,15.1,104.1892,10,11.22,24.65,0,110.3,13.04,10.78,287.0
"2016-02-17 00:31:00",1380953,8.3,327.1,9.54,1.469,16.01,104.1729,9.96,11.23,24.49,0,110.3,13.04,10.74,289.1
"2016-02-17 00:31:30",1380954,9.11,327.6,8.42,1.7,15.49,104.1624,9.93,11.13,23.88,0,110.3,13.04,10.72,289.6
"2016-02-17 00:32:00",1380955,7.906,321.8,6.339,1.554,13.78,104.161,9.93,11.1,24.49,0,110.3,13.04,10.71,283.8
"2016-02-17 00:32:30",1380956,6.905,311.7,4.809,1.108,13.01,104.1435,9.88,10.96,24.85,0,110.3,13.04,10.67,273.7
"2016-02-17 00:33:00",1380957,8.79,326.8,8.95,1.813,15.83,104.1286,9.84,11.14,24.62,0,110.3,13.03,10.63,288.8
"2016-02-17 00:33:30",1380958,9.7,332.8,8.09,1.556,15.88,104.1286,9.84,11.07,22.87,0,110.3,13.03,10.63,294.8
"2016-02-17 00:34:00",1380959,9.7,329.8,8.33,1.629,15.67,104.1286,9.84,11.09,22.55,0,110.3,13.03,10.63,291.8
"2016-02-17 00:34:30",1380960,9.74,332.8,10.34,2.043,15.43,104.1277,9.84,11.04,22.96,0,110.3,13.03,10.63,294.8
"2016-02-17 00:35:00",1380961,10.36,332,8.35,1.41,15.8,104.1207,9.82,11.03,23.01,0,110.3,13.03,10.61,294.0
"2016-02-17 00:35:30",1380962,9.39,329.2,5.691,1.168,13.97,104.1179,9.82,10.86,22.15,0,110.3,13.03,10.60,291.2
"2016-02-17 00:36:00",1380963,9.36,332.6,7.223,1.47,15.31,104.1114,9.8,11.04,22.32,0,110.3,13.03,10.59,294.6
"2016-02-17 00:36:30",1380964,9.14,336.1,7.105,1.765,15.9,104.1052,9.78,10.98,22.34,0,110.3,13.03,10.57,298.1
"2016-02-17 00:37:00",1380965,9.02,332.4,9.1,1.227,15.32,104.0998,9.77,10.94,22.73,0,110.3,13.03,10.56,294.4
"2016-02-17 00:37:30",1380966,8.25,323.7,7.723,1.584,14.42,104.1002,9.77,10.96,22.89,0,110.3,13.04,10.56,285.7
"2016-02-17 00:38:00",1380967,9.17,328,7.818,1.55,15.67,104.0997,9.77,11,22.76,0,110.3,13.04,10.56,290.0
"2016-02-17 00:38:30",1380968,7.968,324.3,6.467,1.129,13.3,104.1003,9.77,10.8,22.53,0,110.3,13.04,10.56,286.3
"2016-02-17 00:39:00",1380969,8.01,325.2,6.641,1.315,14.56,104.1021,9.78,10.97,22.77,0,110.3,13.04,10.56,287.2
"2016-02-17 00:39:30",1380970,9.31,325.4,7.368,1.288,16.79,104.1062,9.79,11,22.72,0,110.3,13.05,10.57,287.4
"2016-02-17 00:40:00",1380971,8.05,317,6.49,1.292,14.78,104.105,9.78,10.94,22.73,0,110.3,13.05,10.57,279.0
"2016-02-17 00:40:30",1380972,8.37,322.6,9.24,1.544,15.23,104.108,9.79,10.93,22.67,0,110.3,13.05,10.58,284.6
"2016-02-17 00:41:00",1380973,9,325.8,8.17,1.501,15.72,104.1097,9.79,10.95,22.61,0,110.3,13.05,10.58,287.8
"2016-02-17 00:41:30",1380974,7.556,319.2,4.893,0.859,13.07,104.1115,9.8,10.86,22.55,0,110.3,13.05,10.59,281.2
"2016-02-17 00:42:00",1380975,7.805,325.9,7.843,1.422,14.8,104.1159,9.81,10.97,23.06,0,110.3,13.05,10.60,287.9
"2016-02-17 00:42:30",1380976,7.54,331.7,8.15,1.649,15.3,104.1188,9.82,10.93,23.6,0,110.3,13.05,10.60,293.7
"2016-02-17 00:43:00",1380977,6.182,335.5,8.49,1.249,14.67,104.1206,9.82,10.97,23.81,0,110.3,13.05,10.61,297.5
"2016-02-17 00:43:30",1380978,6.015,334,7.806,1.397,14.12,104.1226,9.83,10.83,23.78,0,110.3,13.05,10.61,296.0
"2016-02-17 00:44:00",1380979,6.553,326.2,8.46,1.477,14.61,104.1223,9.83,11.01,23.87,0,110.3,13.05,10.61,288.2
"2016-02-17 00:44:30",1380980,6.007,323.4,5.411,1.279,13.95,104.1259,9.84,10.9,23.84,0,110.3,13.05,10.62,285.4
"2016-02-17 00:45:00",1380981,5.798,325.5,6.458,1.174,13.4,104.1276,9.84,10.84,24.01,0,110.3,13.05,10.63,287.5
"2016-02-17 00:45:30",1380982,6.229,332.8,7.868,1.5,14.25,104.1276,9.84,10.91,24.32,0,110.3,13.05,10.63,294.8
"2016-02-17 00:46:00",1380983,6.621,324.4,9.45,1.499,15.16,104.1246,9.83,11.01,24.12,0,110.3,13.05,10.62,286.4
"2016-02-17 00:46:30",1380984,6.715,322.3,7.602,1.368,15.52,104.119,9.82,10.98,24.08,0,110.3,13.05,10.60,284.3
"2016-02-17 00:47:00",1380985,5.253,325.7,9.64,1.273,13.94,104.1122,9.8,10.88,24,0,110.3,13.05,10.59,287.7
"2016-02-17 00:47:30",1380986,6.093,324.5,6.886,1.343,14.32,104.1097,9.79,10.96,24.51,0,110.3,13.05,10.58,286.5
"2016-02-17 00:48:00",1380987,5.955,317.8,7.081,1.27,13.52,104.1066,9.79,10.8,24.15,0,110.3,13.05,10.57,279.8
"2016-02-17 00:48:30",1380988,5.809,318,6.448,1.234,13.47,104.0964,9.76,10.88,23.66,0,110.3,13.05,10.55,280.0
"2016-02-17 00:49:00",1380989,5.92,327.5,7.323,1.429,14.03,104.0961,9.76,10.86,23.77,0,110.3,13.05,10.55,289.5
"2016-02-17 00:49:30",1380990,5.941,329.1,8.21,1.432,15.25,104.0953,9.76,10.94,23.92,0,110.3,13.05,10.54,291.1
"2016-02-17 00:50:00",1380991,5.576,328.1,8.06,1.457,14.35,104.0885,9.74,10.85,23.79,0,110.3,13.05,10.53,290.1
"2016-02-17 00:50:30",1380992,5.419,330.1,6.979,1.368,14.12,104.0801,9.72,10.81,23.83,0,110.3,13.05,10.50,292.1
"2016-02-17 00:51:00",1380993,5.891,331,8.08,1.362,14.74,104.0713,9.7,10.83,23.74,0,110.3,13.05,10.48,293.0
"2016-02-17 00:51:30",1380994,4.931,323.7,3.297,0.172,12.38,104.0626,9.67,10.71,23.67,0,110.3,13.1,10.46,285.7
"2016-02-17 00:52:00",1380995,5.979,325.2,6.754,1.369,13.82,104.0623,9.67,10.76,23.86,0,110.3,13.05,10.46,287.2
"2016-02-17 00:52:30",1380996,6.204,327.8,6.888,1.377,14.73,104.0623,9.67,10.82,24.04,0,110.3,13.05,10.46,289.8
"2016-02-17 00:53:00",1380997,6.164,327.5,7.284,1.351,14.91,104.0569,9.66,10.88,23.94,0,110.3,13.05,10.45,289.5
"2016-02-17 00:53:30",1380998,6.466,328.2,7.838,1.521,14.97,104.0496,9.64,10.8,24.19,0,110.3,13.05,10.43,290.2
"2016-02-17 00:54:00",1380999,6.661,319.3,8.73,1.355,14.64,104.042,9.62,10.83,24.43,0,110.3,13.05,10.41,281.3
"2016-02-17 00:54:30",1381000,7.672,318.5,8.19,1.49,15.16,104.0392,9.61,10.8,24.18,0,110.2,13.05,10.40,280.5
"2016-02-17 00:55:00",1381001,6.196,312.7,2.836,0.513,12.61,104.0298,9.59,10.65,23.14,0,110.3,13.1,10.38,274.7
"2016-02-17 00:55:30",1381002,7.159,324.8,7.542,1.436,15.44,104.0284,9.59,10.79,23.29,0,110.3,13.06,10.37,286.8
"2016-02-17 00:56:00",1381003,6.039,320.5,8.98,1.412,14.62,104.0284,9.59,10.8,23.43,0,110.2,13.06,10.37,282.5
"2016-02-17 00:56:30",1381004,6.273,318.3,7.788,1.483,15.54,104.0284,9.59,10.82,23.63,0,110.3,13.06,10.37,280.3
"2016-02-17 00:57:00",1381005,6.616,325.3,7.26,1.798,13.95,104.0253,9.58,10.63,23.46,0,110.2,13.06,10.36,287.3
"2016-02-17 00:57:30",1381006,5.652,331.9,10.45,1.36,14.95,104.0203,9.57,10.79,23.91,0,110.2,13.06,10.35,293.9
"2016-02-17 00:58:00",1381007,5.081,318.3,6.949,1.093,13.19,104.0175,9.56,10.6,24.03,0,110.2,13.06,10.34,280.3
"2016-02-17 00:58:30",1381008,6.068,313.1,6.319,0.91,13.15,104.0139,9.55,10.64,23.72,0,110.2,13.07,10.33,275.1
"2016-02-17 00:59:00",1381009,6.511,328.2,10.82,1.765,14.93,104.0097,9.54,10.7,23.92,0,110.2,13.07,10.32,290.2
"2016-02-17 00:59:30",1381010,7.318,319.7,11.09,2.202,15.74,104.005,9.53,10.78,23.87,0,110.2,13.07,10.31,281.7
"2016-02-17 01:00:00",1381011,9.12,318.2,7.955,1.451,14.58,104.0031,9.52,10.72,23,0,110.2,13.07,10.31,280.2
"2016-02-17 01:00:30",1381012,8.85,325.1,5.742,1.535,15.46,104.0034,9.52,10.75,22.92,0,110.2,13.07,10.31,287.1
"2016-02-17 01:01:00",1381013,8.3,317.8,9.85,1.443,15.12,104.0046,9.53,10.74,23.09,0,110.2,13.07,10.31,279.8
"2016-02-17 01:01:30",1381014,6.547,321.3,9.48,1.134,13.55,104.0063,9.53,10.67,23.24,0,110.2,13.07,10.32,283.3
"2016-02-17 01:02:00",1381015,7.87,329.7,13.56,0.992,14.23,104.0063,9.53,10.67,23.52,0,110.2,13.07,10.32,291.7
"2016-02-17 01:02:30",1381016,9.53,327.8,7.742,1.675,15.62,104.0101,9.54,10.71,23.25,0,110.2,13.07,10.33,289.8
"2016-02-17 01:03:00",1381017,7.907,322.7,8.61,1.513,14.52,104.0095,9.54,10.67,22.69,0,110.2,13.07,10.32,284.7
"2016-02-17 01:03:30",1381018,8.19,321,7.584,1.273,15.71,104.011,9.54,10.74,23.46,0,110.2,13.07,10.33,283.0
"2016-02-17 01:04:00",1381019,8.16,316.1,9.96,1.539,14.56,104.011,9.54,10.75,24.15,0,110.2,13.07,10.33,278.1
"2016-02-17 01:04:30",1381020,9.51,320.5,11.2,1.484,14.16,104.0116,9.54,10.63,22.64,0,110.2,13.07,10.33,282.5
"2016-02-17 01:05:00",1381021,9.6,320.4,8.8,0.977,14.07,104.0117,9.54,10.62,22.65,0,110.2,13.07,10.33,282.4
"2016-02-17 01:05:30",1381022,13.93,325.6,8.68,1.784,16.91,104.0143,9.55,10.76,22.05,0,110.2,13.07,10.34,287.6
"2016-02-17 01:06:00",1381023,12.9,317.6,7.464,1.351,15.95,104.0166,9.56,10.72,21.51,0,110.2,13.07,10.34,279.6
"2016-02-17 01:06:30",1381024,12.79,323.3,7.942,1.406,16.24,104.0178,9.56,10.75,21.73,0,110.2,13.06,10.34,285.3
"2016-02-17 01:07:00",1381025,12.4,320.2,8.89,1.258,14.64,104.0192,9.56,10.68,21.74,0,110.2,13.06,10.35,282.2
"2016-02-17 01:07:30",1381026,12.36,324,9.42,1.52,15.45,104.0204,9.57,10.69,21.77,0,110.2,13.06,10.35,286.0
"2016-02-17 01:08:00",1381027,11.97,320.7,7.329,1.519,14.31,104.0258,9.58,10.66,21.56,0,110.2,13.06,10.37,282.7
"2016-02-17 01:08:30",1381028,10.83,324.3,7.611,1.334,15.01,104.0382,9.61,10.69,21.55,0,110.2,13.06,10.40,286.3
"2016-02-17 01:09:00",1381029,8.96,332.3,10.82,1.68,15.81,104.0445,9.63,10.8,22.24,0,110.2,13.06,10.41,294.3
"2016-02-17 01:09:30",1381030,10.29,327.9,9.44,1.956,15.57,104.0493,9.64,10.74,23.23,0,110.2,13.06,10.43,289.9
"2016-02-17 01:10:00",1381031,11.71,323.8,7.511,1.939,14.21,104.0553,9.66,10.66,21.96,0,110.2,13.06,10.44,285.8
"2016-02-17 01:10:30",1381032,12.26,319.7,6.352,1.512,14.75,104.0602,9.67,10.7,21.08,0,110.2,13.06,10.45,281.7
"2016-02-17 01:11:00",1381033,12.1,321,8.81,1.364,15.91,104.0604,9.67,10.81,21.61,0,110.2,13.06,10.45,283.0
"2016-02-17 01:11:30",1381034,11.15,316.4,7.68,1.712,15.75,104.0619,9.67,10.78,21.7,0,110.2,13.07,10.46,278.4
"2016-02-17 01:12:00",1381035,11.65,322.8,8.01,1.566,15.89,104.0604,9.67,10.8,21.5,0,110.2,13.07,10.45,284.8
"2016-02-17 01:12:30",1381036,11.13,320.7,5.511,1.155,15.73,104.0639,9.68,10.8,21.15,0,110.2,13.07,10.46,282.7
"2016-02-17 01:13:00",1381037,9.41,313.5,6.962,1.245,13.44,104.0696,9.69,10.62,20.96,0,110.2,13.07,10.48,275.5
"2016-02-17 01:13:30",1381038,10.95,318.6,9.48,1.929,14.83,104.076,9.71,10.8,21.33,0,110.2,13.07,10.49,280.6
"2016-02-17 01:14:00",1381039,13.46,320.8,10.01,1.607,15.67,104.0764,9.71,10.75,21.2,0,110.2,13.07,10.50,282.8
"2016-02-17 01:14:30",1381040,14.19,321,7.677,1.761,15.91,104.0741,9.7,10.81,20.77,0,110.2,13.07,10.49,283.0
"2016-02-17 01:15:00",1381041,14.08,318.3,7.233,1.76,16.44,104.0747,9.7,10.87,20.94,0,110.2,13.07,10.49,280.3
"2016-02-17 01:15:30",1381042,14.26,317.6,7.162,1.615,15.52,104.0766,9.71,10.86,20.47,0,110.2,13.07,10.50,279.6
"2016-02-17 01:16:00",1381043,14.37,318,6.995,1.454,15.4,104.0809,9.72,10.85,20.16,0,110.2,13.07,10.51,280.0
"2016-02-17 01:16:30",1381044,12.97,312,7.891,1.267,14.65,104.0893,9.74,10.76,20.25,0,110.2,13.07,10.53,274.0
"2016-02-17 01:17:00",1381045,14.21,314.5,7.896,1.656,15.17,104.0944,9.76,10.83,20.43,0,110.2,13.07,10.54,276.5
"2016-02-17 01:17:30",1381046,15.35,316.3,7.834,1.462,15.86,104.0975,9.76,10.93,19.94,0,110.2,13.07,10.55,278.3
"2016-02-17 01:18:00",1381047,15.18,320.4,7.52,1.42,16.3,104.0975,9.76,10.91,19.64,0,110.2,13.07,10.55,282.4
"2016-02-17 01:18:30",1381048,14.91,321.5,7.786,1.688,15.84,104.1051,9.78,10.95,19.92,0,110.2,13.07,10.57,283.5
"2016-02-17 01:19:00",1381049,16.29,322.9,7.739,1.339,16.53,104.1147,9.81,10.97,19.54,0,110.2,13.07,10.59,284.9
"2016-02-17 01:19:30",1381050,15.62,321.9,7.067,1.35,15.73,104.1238,9.83,10.89,19.23,0,110.2,13.07,10.62,283.9
"2016-02-17 01:20:00",1381051,14.63,323.6,7.228,1.37,16.06,104.1314,9.85,10.92,19.16,0,110.2,13.07,10.64,285.6
"2016-02-17 01:20:30",1381052,13.29,322.5,7.4,1.31,14.9,104.1404,9.87,10.92,19.19,0,110.2,13.07,10.66,284.5
"2016-02-17 01:21:00",1381053,15.12,324.3,7.463,1.705,16.28,104.1483,9.89,10.95,18.91,0,110.2,13.07,10.68,286.3
"2016-02-17 01:21:30",1381054,14.56,323.7,7.854,1.499,16.35,104.159,9.92,11.01,19.22,0,110.2,13.07,10.71,285.7
"2016-02-17 01:22:00",1381055,16.14,322.2,6.716,1.388,16.57,104.1653,9.94,11.03,19.45,0,110.2,13.07,10.72,284.2
"2016-02-17 01:22:30",1381056,14.73,316,6.383,1.17,15.16,104.1653,9.94,11.03,19.46,0,110.2,13.07,10.72,278.0
"2016-02-17 01:23:00",1381057,15.77,322.2,6.996,1.507,16.5,104.1748,9.96,11.03,19.5,0,110.2,13.07,10.75,284.2
"2016-02-17 01:23:30",1381058,16.12,323.9,8.66,1.343,16.13,104.1867,9.99,11.07,18.76,0,110.2,13.07,10.78,285.9
"2016-02-17 01:24:00",1381059,16.01,320,7.734,1.162,14.67,104.1986,10.02,11.03,18.88,0,110.2,13.07,10.81,282.0
"2016-02-17 01:24:30",1381060,17.64,322.2,6.399,1.481,17,104.1991,10.02,11.13,19.21,0,110.2,13.06,10.81,284.2
"2016-02-17 01:25:00",1381061,16.88,325.2,7.255,1.612,16.93,104.1991,10.02,11.19,18.93,0,110.2,13.07,10.81,287.2
"2016-02-17 01:25:30",1381062,16.09,324.1,6.922,1.63,16.32,104.1997,10.02,11.17,19.28,0,110.2,13.07,10.81,286.1
"2016-02-17 01:26:00",1381063,17.17,327.3,7.735,1.52,16.64,104.2098,10.05,11.21,19.37,0,110.2,13.06,10.84,289.3
"2016-02-17 01:26:30",1381064,16.5,328.8,8.27,1.351,16.38,104.2262,10.09,11.2,19.17,0,110.2,13.06,10.88,290.8
"2016-02-17 01:27:00",1381065,15.77,324.3,7.012,1.242,15.2,104.2321,10.11,11.17,18.72,0,110.2,13.06,10.89,286.3
"2016-02-17 01:27:30",1381066,15.16,321.6,7.722,2.032,16.38,104.233,10.11,11.18,18.64,0,110.2,13.06,10.90,283.6
"2016-02-17 01:28:00",1381067,17.01,319.2,7.327,1.462,15.8,104.233,10.11,11.14,18.61,0,110.2,13.07,10.90,281.2
"2016-02-17 01:28:30",1381068,17.18,325,7.817,1.485,16.8,104.233,10.11,11.26,18.58,0,110.2,13.07,10.90,287.0
"2016-02-17 01:29:00",1381069,15.62,329.3,7.242,1.55,17.19,104.2437,10.14,11.28,18.22,0,110.2,13.07,10.92,291.3
"2016-02-17 01:29:30",1381070,15.13,331.4,7.559,1.351,17.18,104.2496,10.15,11.29,18.02,0,110.2,13.07,10.94,293.4
"2016-02-17 01:30:00",1381071,14.89,325,6.209,1.599,15.69,104.2564,10.17,11.24,18.83,0,110.2,13.07,10.96,287.0
"2016-02-17 01:30:30",1381072,12.78,317.3,7.371,1.284,13.9,104.2637,10.19,11.17,18.99,0,110.2,13.07,10.98,279.3
"2016-02-17 01:31:00",1381073,12.99,324.8,6.867,1.596,15.46,104.2668,10.2,11.3,19.21,0,110.2,13.08,10.98,286.8
"2016-02-17 01:31:30",1381074,12.02,326.8,6.785,1.684,15.02,104.2668,10.2,11.26,19.31,0,110.2,13.08,10.98,288.8
"2016-02-17 01:32:00",1381075,13.09,324.5,8.71,1.643,15.87,104.2668,10.2,11.28,19.3,0,110.2,13.08,10.98,286.5
"2016-02-17 01:32:30",1381076,13.37,324,8.04,1.373,16.84,104.2668,10.2,11.36,19.27,0,110.2,13.08,10.98,286.0
"2016-02-17 01:33:00",1381077,12.07,322.3,8.62,1.381,14.81,104.2668,10.2,11.22,19.31,0,110.2,13.08,10.98,284.3
"2016-02-17 01:33:30",1381078,13.32,322.5,7.938,1.495,15.3,104.2666,10.2,11.33,19.51,0,110.2,13.07,10.98,284.5
"2016-02-17 01:34:00",1381079,15.35,321.8,9.41,1.516,15.43,104.2652,10.19,11.22,19.15,0,110.2,13.08,10.98,283.8
"2016-02-17 01:34:30",1381080,14.8,319.5,7.315,1.599,15.92,104.2637,10.19,11.31,19.44,0,110.2,13.08,10.98,281.5
"2016-02-17 01:35:00",1381081,14.33,321.3,7.408,1.553,16.23,104.2637,10.19,11.3,19.38,0,110.2,13.08,10.98,283.3
"2016-02-17 01:35:30",1381082,15.32,320.8,7.79,1.573,16.54,104.262,10.18,11.35,19.6,0,110.2,13.08,10.97,282.8
"2016-02-17 01:36:00",1381083,14.76,321,7.881,1.478,16.39,104.2604,10.18,11.39,19.24,0,110.2,13.08,10.97,283.0
"2016-02-17 01:36:30",1381084,14.54,320.5,10.14,1.898,15.84,104.262,10.18,11.38,19.28,0,110.2,13.08,10.97,282.5
"2016-02-17 01:37:00",1381085,13.51,315.8,5.915,1.319,15.61,104.264,10.19,11.26,19.5,0,110.2,13.08,10.98,277.8
"2016-02-17 01:37:30",1381086,13.24,309,7.353,0.979,14.02,104.264,10.19,11.24,19.55,0,110.2,13.08,10.98,271.0
"2016-02-17 01:38:00",1381087,13.2,317.3,7.448,1.682,15.76,104.2643,10.19,11.3,19.67,0,110.2,13.08,10.98,279.3
"2016-02-17 01:38:30",1381088,14.09,325.9,8.63,1.651,16.53,104.2629,10.19,11.37,19.77,0,110.2,13.08,10.97,287.9
"2016-02-17 01:39:00",1381089,15.33,323.2,8.36,1.813,15.77,104.2626,10.19,11.33,19.51,0,110.2,13.08,10.97,285.2
"2016-02-17 01:39:30",1381090,13.39,317.2,7.661,1.663,15.57,104.2635,10.19,11.28,19.73,0,110.2,13.08,10.98,279.2
"2016-02-17 01:40:00",1381091,12.67,317.6,7.448,1.623,16.1,104.262,10.18,11.34,19.79,0,110.2,13.07,10.97,279.6
"2016-02-17 01:40:30",1381092,10.88,312.5,8.53,1.161,14.79,104.2606,10.18,11.24,19.64,0,110.2,13.07,10.97,274.5
"2016-02-17 01:41:00",1381093,12.38,304.1,9.06,1.648,15.33,104.2581,10.17,11.32,19.48,0,110.2,13.07,10.96,266.1
"2016-02-17 01:41:30",1381094,11.39,307.9,6.446,1.681,15.32,104.2668,10.2,11.34,19.02,0,110.2,13.07,10.98,269.9
"2016-02-17 01:42:00",1381095,12.61,320.6,7.395,1.604,16.26,104.2674,10.2,11.33,19.13,0,110.2,13.07,10.99,282.6
"2016-02-17 01:42:30",1381096,10.65,325.5,7.752,2.149,15.4,104.2722,10.21,11.26,19.29,0,110.2,13.07,11.00,287.5
"2016-02-17 01:43:00",1381097,10.93,319.5,6.783,1.906,15.48,104.2685,10.2,11.29,19.46,0,110.2,13.07,10.99,281.5
"2016-02-17 01:43:30",1381098,10.64,322.7,8.44,1.632,15.65,104.2668,10.2,11.24,19.68,0,110.2,13.07,10.98,284.7
"2016-02-17 01:44:00",1381099,10.57,330.1,13.15,1.448,16.11,104.2668,10.2,11.29,19.75,0,110.2,13.07,10.98,292.1
"2016-02-17 01:44:30",1381100,9.78,309.8,6.8,1.417,14.42,104.2668,10.2,11.26,19.75,0,110.2,13.07,10.98,271.8
"2016-02-17 01:45:00",1381101,9.41,308.9,6.191,1.771,14.12,104.2663,10.2,11.19,19.55,0,110.2,13.07,10.98,270.9
"2016-02-17 01:45:30",1381102,9.8,321.5,10.52,1.179,15.54,104.2589,10.18,11.32,19.8,0,110.2,13.08,10.96,283.5
"2016-02-17 01:46:00",1381103,9.19,318.7,7.295,1.58,15.34,104.2516,10.16,11.33,19.94,0,110.2,13.08,10.95,280.7
"2016-02-17 01:46:30",1381104,11.51,315.6,7.822,1.512,15.46,104.2443,10.14,11.24,19.8,0,110.2,13.08,10.93,277.6
"2016-02-17 01:47:00",1381105,10.94,312.3,7.716,1.394,16.47,104.2367,10.12,11.4,19.86,0,110.2,13.08,10.91,274.3
"2016-02-17 01:47:30",1381106,9.64,311.1,7.644,1.627,14.79,104.2333,10.11,11.2,19.72,0,110.2,13.08,10.90,273.1